Tracking 29892 objects as of 21-Nov-2024
HD Live streaming from Space Station
objects crossing your sky now

DELTA 1 DEB

Track DELTA 1 DEB now!
10-day predictions


NORAD ID: 7043
Int'l Code: 1973-086AK
Perigee: 1,160.0 km
Apogee: 1,495.1 km
Inclination: 102.2 °
Period: 112.0 minutes
Semi major axis: 7698 km
RCS: 0.0608 m2 (small)
Launch date: November 6, 1973
Source: United States (US)
Launch site: AIR FORCE WESTERN TEST RANGE (AFWTR)

Note: This is SATELLITE DEBRIS
Your satellite tracking list
Your tracking list is empty




NASA's NSSDC Master Catalog

Two Line Element Set (TLE):
1 07043U 73086AK  24325.87376368  .00000083  00000-0  50339-3 0  9996
2 07043 102.1805 329.5133 0217632 310.7435 167.1686 12.85244680390921
Source of the keplerian elements: AFSPC